Location: Poughquag
(41.6090°N, 73.6820°W)
Time: 21:30:53
(UTC-05:00)

Tiros 1 despin weight - Visible Passes

Search period start: 18 January 2021 00:00
Search period end: 28 January 2021 00:00
Orbit: 594 x 641 km, 48.2° (Epoch: 17 January)

Date Brightness Start Highest point End Pass type
(mag) Time Alt. Az. Time Alt. Az. Time Alt. Az.
18 Jan ? 18:31:43 10° WNW 18:35:51 36° N 18:37:05 30° NNE visible
18 Jan ? 20:13:50 10° WNW 20:14:08 12° WNW 20:14:08 12° WNW visible
19 Jan ? 18:48:26 10° WNW 18:52:32 34° N 18:52:50 34° N visible
20 Jan ? 17:22:44 10° W 17:26:59 40° NNW 17:31:10 10° ENE visible
20 Jan ? 19:05:02 10° WNW 19:08:35 35° N 19:08:35 35° N visible
21 Jan ? 17:39:30 10° WNW 17:43:38 35° N 17:47:19 12° ENE visible
21 Jan ? 19:21:31 10° WNW 19:24:22 34° NNW 19:24:22 34° NNW visible
22 Jan ? 17:56:11 10° WNW 18:00:18 35° N 18:03:08 17° ENE visible
22 Jan ? 19:37:54 10° WNW 19:40:12 29° NW 19:40:12 29° NW visible
23 Jan ? 18:12:43 10° WNW 18:16:58 40° NNE 18:19:01 25° ENE visible
23 Jan ? 19:54:19 10° WNW 19:56:05 23° WNW 19:56:05 23° WNW visible
24 Jan ? 18:29:10 10° WNW 18:33:33 53° NNE 18:34:59 36° ENE visible
24 Jan ? 20:10:51 10° WNW 20:12:03 17° WNW 20:12:03 17° WNW visible
25 Jan ? 18:45:33 10° WNW 18:50:01 81° NNE 18:51:03 52° ESE visible
25 Jan ? 20:27:43 10° W 20:28:08 12° W 20:28:08 12° W visible
26 Jan ? 19:02:00 10° WNW 19:06:23 60° SSW 19:07:16 49° SSE visible
27 Jan ? 17:36:48 10° WNW 17:41:15 62° NNE 17:45:39 10° ESE visible
27 Jan ? 19:18:38 10° WNW 19:22:37 33° SW 19:23:38 29° SSW visible
